This demonstration page uses our WeatherBlox Daily Observations layout. Learn more.

Left ArrowRight Arrow

Hourly Observations for March 21, 2015

Temp ( °F °C ) Dew Point ( °F °C ) Humidity (%) Winds ( mph kmh ) Pressure ( in mb ) Visibility ( mi km ) Precip ( " mm )
12:51 am 00:51 Clear 52 11.1 43 6.1 72 72 WSW 6 9 30.01 1016 10 16 0.00 0.00
1:51 am 01:51 Partly Cloudy 50 10 43 6.1 77 77 Calm 30.03 1017 10 16 0.00 0.00
2:51 am 02:51 Mostly Cloudy 49 9.4 44 6.7 83 83 N 6 9 30.02 1017 10 16 0.00 0.00
3:51 am 03:51 Cloudy 52 11.1 44 6.7 75 75 W 3 6 30.01 1016 10 16 0.00 0.00
4:51 am 04:51 Mostly Clear 49 9.4 44 6.7 83 83 Calm 30.02 1017 10 16 0.00 0.00
5:51 am 05:51 Clear 46 7.8 43 6.1 89 89 Calm 30.04 1017 10 16 0.00 0.00
6:51 am 06:51 Sunny 46 7.8 43 6.1 89 89 Calm 30.06 1018 10 16 0.00 0.00
7:51 am 07:51 Sunny 54 12.2 44 6.7 69 69 Calm 30.07 1018 10 16 0.00 0.00
8:51 am 08:51 Sunny 59 15 43 6.1 56 56 Calm 30.08 1019 10 16 0.00 0.00
9:51 am 09:51 Sunny 63 17.2 41 5 45 45 SW 5 7 30.07 1018 10 16 0.00 0.00
10:51 am 10:51 Sunny 68 20 42 5.6 39 39 Calm 30.05 1018 10 16 0.00 0.00
11:51 am 11:51 Sunny 71 21.7 42 5.6 35 35 undefined N/A 30.02 1017 10 16 0.00 0.00
12:51 pm 12:51 Sunny 72 22.2 38 3.3 29 29 VRB 3 6 29.99 1016 10 16 0.00 0.00
1:51 pm 13:51 Sunny 75 23.9 36 2.2 24 24 W 12 19 29.95 1014 10 16 0.00 0.00
2:51 pm 14:51 Sunny 77 25 31 -0.6 18 18 NW 17 28 29.92 1013 10 16 0.00 0.00
3:51 pm 15:51 Sunny 77 25 28 -2.2 16 16 WNW 17 28 29.90 1013 10 16 0.00 0.00
4:51 pm 16:51 Sunny 77 25 29 -1.7 17 17 WNW 18 30 29.91 1013 10 16 0.00 0.00
5:51 pm 17:51 Mostly Sunny 75 23.9 32 0 21 21 WNW 14 22 29.92 1013 10 16 0.00 0.00
6:51 pm 18:51 Clear 70 21.1 35 1.7 28 28 WNW 14 22 29.95 1014 10 16 0.00 0.00
7:51 pm 19:51 Clear 65 18.3 37 2.8 36 36 NW 10 17 29.96 1015 10 16 0.00 0.00
8:51 pm 20:51 Clear 66 18.9 35 1.7 32 32 NW 15 24 29.98 1015 10 16 0.00 0.00
9:51 pm 21:51 Clear 63 17.2 35 1.7 35 35 NW 13 20 30.00 1016 10 16 0.00 0.00
10:51 pm 22:51 Clear 63 17.2 36 2.2 37 37 NW 12 19 30.00 1016 10 16 0.00 0.00
11:51 pm 23:51 Clear 58 14.4 36 2.2 44 44 NNW 8 13 30.01 1016 10 16 0.00 0.00

Powered by AerisWeather